Location: ????????
(37.6846°N, 24.0673°E)
Time: 14:38:53
(UTC+00:00)

Cosmos 2369 - Pass Details

Date: 14 July 2020
Orbit: 839 x 857 km, 71.0° (Epoch: 04 August)

Event Time Altitude Azimuth Distance (km) Brightness Sun altitude
Rises 01:43:24 0° 327° (NNW) 3,432 7.0 -15.2°
Reaches altitude 10° 01:46:05 10° 318° (NW) 2,493 6.2 -14.9°
Maximum altitude 01:51:05 32° 257° (WSW) 1,425 4.4 -14.1°
Enters shadow 01:54:54 16° 202° (SSW) 2,103 5.2 -13.6°
